When you browse on this site, cookies collect data to enhance your experience and personalize the content and advertising you see.
Visit our Privacy Policy to learn more. By continuing to use the site, you agree to this use of cookies and data.
  • In United Kingdom
  • List of Countries
  • For 7 days
  • Water Temperature
  • Satellite Maps
  • Weather Map
  • Weather Widgets
  • user-avatar
    Login

    Hourly Weather Asadabad

    Today, 11 December, Tuesday

    Time Temperature Precipitation Wind Pressure Humidity
    00:00 +3°C° 0 mm 2 mps 657 mmHg 68%
    01:00 +3°C° 0 mm 2 mps 658 mmHg 65%
    02:00 +3°C° 0 mm 2 mps 658 mmHg 63%
    03:00 +3°C° 0 mm 2 mps 658 mmHg 62%
    04:00 +3°C° 0 mm 2 mps 658 mmHg 61%
    05:00 +4°C° 0 mm 2 mps 657 mmHg 55%
    06:00 +4°C° 0 mm 2 mps 657 mmHg 53%
    07:00 +5°C° 0 mm 2 mps 658 mmHg 50%
    08:00 +5°C° 0 mm 2 mps 658 mmHg 48%
    09:00 +6°C° 0 mm 2 mps 658 mmHg 46%
    10:00 +8°C° 0 mm 1 mps 658 mmHg 43%
    11:00 +10°C° 0 mm 1 mps 658 mmHg 36%
    12:00 +10°C° 0 mm 1 mps 658 mmHg 37%
    13:00 +10°C° 0 mm 1 mps 658 mmHg 37%
    14:00 +10°C° 0 mm 2 mps 658 mmHg 38%
    15:00 +10°C° 0 mm 1 mps 658 mmHg 42%
    16:00 +9°C° 0 mm 1 mps 658 mmHg 46%
    17:00 +8°C° 0 mm 1 mps 658 mmHg 51%
    18:00 +7°C° 0 mm 1 mps 658 mmHg 50%
    19:00 +7°C° 0 mm 1 mps 658 mmHg 50%
    20:00 +6°C° 0 mm 2 mps 659 mmHg 50%
    21:00 +5°C° 0 mm 2 mps 659 mmHg 49%
    22:00 +5°C° 0 mm 2 mps 659 mmHg 49%
    23:00 +5°C° 0 mm 2 mps 659 mmHg 48%

    Tomorrow, 12 December, Wednesday

    Time Temperature Precipitation Wind Pressure Humidity
    00:00 +5°C° 0 mm 2 mps 659 mmHg 48%
    01:00 +4°C° 0 mm 2 mps 659 mmHg 48%
    02:00 +4°C° 0 mm 2 mps 659 mmHg 48%
    03:00 +4°C° 0 mm 2 mps 659 mmHg 47%
    04:00 +3°C° 0 mm 2 mps 659 mmHg 47%
    05:00 +3°C° 0 mm 2 mps 659 mmHg 47%
    06:00 +3°C° 0 mm 2 mps 659 mmHg 45%
    07:00 +4°C° 0 mm 2 mps 659 mmHg 44%
    08:00 +4°C° 0 mm 2 mps 660 mmHg 42%
    09:00 +5°C° 0 mm 2 mps 660 mmHg 38%
    10:00 +7°C° 0 mm 2 mps 660 mmHg 34%
    11:00 +10°C° 0 mm 1 mps 660 mmHg 30%
    12:00 +10°C° 0 mm 1 mps 660 mmHg 30%
    13:00 +9°C° 0 mm 2 mps 660 mmHg 31%
    14:00 +10°C° 0 mm 2 mps 659 mmHg 31%
    15:00 +10°C° 0 mm 1 mps 659 mmHg 35%
    16:00 +8°C° 0 mm 1 mps 659 mmHg 39%
    17:00 +7°C° 0 mm 1 mps 659 mmHg 44%
    18:00 +7°C° 0 mm 1 mps 659 mmHg 43%
    19:00 +5°C° 0 mm 2 mps 660 mmHg 43%
    20:00 +5°C° 0 mm 2 mps 661 mmHg 43%
    21:00 +4°C° 0 mm 2 mps 661 mmHg 42%
    22:00 +4°C° 0 mm 2 mps 661 mmHg 40%
    23:00 +4°C° 0 mm 2 mps 661 mmHg 39%

    Day after tomorrow, 13 December, Thursday

    Time Temperature Precipitation Wind Pressure Humidity
    00:00 +3°C° 0 mm 2 mps 661 mmHg 38%
    01:00 +3°C° 0 mm 2 mps 661 mmHg 37%
    02:00 +3°C° 0 mm 2 mps 660 mmHg 36%
    03:00 +3°C° 0 mm 2 mps 660 mmHg 35%
    04:00 +3°C° 0 mm 2 mps 660 mmHg 34%
    05:00 +2°C° 0 mm 2 mps 660 mmHg 33%
    06:00 +3°C° 0 mm 2 mps 661 mmHg 32%
    07:00 +3°C° 0 mm 2 mps 661 mmHg 30%
    08:00 +3°C° 0 mm 2 mps 661 mmHg 28%
    09:00 +5°C° 0 mm 2 mps 661 mmHg 26%
    10:00 +7°C° 0 mm 2 mps 661 mmHg 23%
    11:00 +10°C° 0 mm 1 mps 661 mmHg 21%
    12:00 +10°C° 0 mm 1 mps 661 mmHg 21%
    13:00 +11°C° 0 mm 1 mps 661 mmHg 21%
    14:00 +10°C° 0 mm 2 mps 660 mmHg 22%
    15:00 +10°C° 0 mm 1 mps 660 mmHg 26%
    16:00 +8°C° 0 mm 1 mps 660 mmHg 30%
    17:00 +7°C° 0 mm 1 mps 659 mmHg 35%
    18:00 +6°C° 0 mm 1 mps 660 mmHg 33%
    19:00 +5°C° 0 mm 2 mps 661 mmHg 31%
    20:00 +5°C° 0 mm 2 mps 661 mmHg 29%
    21:00 +4°C° 0 mm 2 mps 661 mmHg 28%
    22:00 +4°C° 0 mm 2 mps 661 mmHg 26%
    23:00 +3°C° 0 mm 3 mps 661 mmHg 24%

    14 December, Friday

    Time Temperature Precipitation Wind Pressure Humidity
    00:00 +2°C° 0 mm 3 mps 661 mmHg 24%
    01:00 +2°C° 0 mm 3 mps 661 mmHg 23%
    02:00 +2°C° 0 mm 3 mps 660 mmHg 22%
    03:00 +2°C° 0 mm 3 mps 660 mmHg 22%
    04:00 +2°C° 0 mm 3 mps 660 mmHg 22%
    05:00 +2°C° 0 mm 3 mps 660 mmHg 21%
    06:00 +3°C° 0 mm 2 mps 660 mmHg 21%
    07:00 +3°C° 0 mm 2 mps 660 mmHg 21%
    08:00 +3°C° 0 mm 2 mps 661 mmHg 21%
    09:00 +6°C° 0 mm 2 mps 661 mmHg 18%
    10:00 +8°C° 0 mm 2 mps 661 mmHg 16%
    11:00 +12°C° 0 mm 1 mps 661 mmHg 14%
    12:00 +12°C° 0 mm 1 mps 661 mmHg 14%
    13:00 +13°C° 0 mm 1 mps 661 mmHg 14%
    14:00 +13°C° 0 mm 1 mps 660 mmHg 14%
    15:00 +11°C° 0 mm 1 mps 660 mmHg 18%
    16:00 +9°C° 0 mm 1 mps 660 mmHg 22%
    17:00 +7°C° 0 mm 1 mps 660 mmHg 26%
    18:00 +7°C° 0 mm 1 mps 660 mmHg 25%
    19:00 +6°C° 0 mm 2 mps 661 mmHg 24%
    20:00 +5°C° 0 mm 2 mps 661 mmHg 24%
    21:00 +5°C° 0 mm 2 mps 661 mmHg 23%
    22:00 +5°C° 0 mm 2 mps 661 mmHg 22%
    23:00 +5°C° 0 mm 2 mps 662 mmHg 22%

    15 December, Saturday

    Time Temperature Precipitation Wind Pressure Humidity
    00:00 +5°C° 0 mm 2 mps 661 mmHg 21%
    01:00 +4°C° 0 mm 2 mps 661 mmHg 21%
    02:00 +4°C° 0 mm 2 mps 661 mmHg 20%
    03:00 +4°C° 0 mm 2 mps 660 mmHg 20%
    04:00 +4°C° 0 mm 2 mps 660 mmHg 19%
    05:00 +3°C° 0 mm 3 mps 660 mmHg 19%
    06:00 +3°C° 0 mm 3 mps 660 mmHg 19%
    07:00 +3°C° 0 mm 3 mps 661 mmHg 18%
    08:00 +4°C° 0 mm 3 mps 661 mmHg 18%
    09:00 +7°C° 0 mm 2 mps 661 mmHg 16%
    10:00 +11°C° 0 mm 1 mps 661 mmHg 14%
    11:00 +14°C° 0 mm 1 mps 662 mmHg 12%
    12:00 +14°C° 0 mm 1 mps 662 mmHg 12%
    13:00 +14°C° 0 mm 1 mps 661 mmHg 13%
    14:00 +15°C° 0 mm 1 mps 661 mmHg 14%
    15:00 +13°C° 0 mm 1 mps 661 mmHg 18%
    16:00 +10°C° 0 mm 1 mps 660 mmHg 22%
    17:00 +7°C° 0 mm 0 mps 660 mmHg 26%
    18:00 +8°C° 0 mm 1 mps 660 mmHg 25%
    19:00 +8°C° 0 mm 1 mps 661 mmHg 24%
    20:00 +6°C° 0 mm 2 mps 662 mmHg 23%
    21:00 +6°C° 0 mm 2 mps 662 mmHg 22%
    22:00 +6°C° 0 mm 2 mps 662 mmHg 21%
    23:00 +5°C° 0 mm 3 mps 662 mmHg 21%

    16 December, Sunday

    Time Temperature Precipitation Wind Pressure Humidity
    00:00 +4°C° 0 mm 3 mps 662 mmHg 20%
    01:00 +4°C° 0 mm 3 mps 662 mmHg 20%
    02:00 +4°C° 0 mm 3 mps 661 mmHg 19%
    03:00 +4°C° 0 mm 3 mps 661 mmHg 18%
    04:00 +4°C° 0 mm 3 mps 661 mmHg 17%
    05:00 +4°C° 0 mm 3 mps 661 mmHg 17%
    06:00 +4°C° 0 mm 3 mps 661 mmHg 16%
    07:00 +4°C° 0 mm 3 mps 662 mmHg 16%
    08:00 +4°C° 0 mm 3 mps 662 mmHg 16%
    09:00 +8°C° 0 mm 2 mps 662 mmHg 14%
    10:00 +12°C° 0 mm 2 mps 663 mmHg 12%
    11:00 +14°C° 0 mm 1 mps 663 mmHg 10%
    12:00 +15°C° 0 mm 1 mps 663 mmHg 11%
    13:00 +15°C° 0 mm 1 mps 662 mmHg 11%
    14:00 +16°C° 0 mm 1 mps 662 mmHg 11%
    15:00 +14°C° 0 mm 1 mps 662 mmHg 14%
    16:00 +11°C° 0 mm 1 mps 661 mmHg 17%
    17:00 +9°C° 0 mm 1 mps 660 mmHg 21%
    18:00 +9°C° 0 mm 1 mps 661 mmHg 20%
    19:00 +8°C° 0 mm 2 mps 661 mmHg 19%
    20:00 +7°C° 0 mm 3 mps 662 mmHg 18%
    21:00 +7°C° 0 mm 3 mps 661 mmHg 18%
    22:00 +7°C° 0 mm 3 mps 661 mmHg 18%
    23:00 +5°C° 0 mm 3 mps 661 mmHg 18%
    Show more